Погода в Коврино

Россия / Ростовская область     47°00′37″N   41°45′40″E
темп.,
°C
ветер,
м/с
пор.,
м/с
влажн.,
%
обл.,
%
осадки,
мм/ч
давл.,
гПа
погр.,
м
24 июля, сб
сб2400:00+20зсз33551 0.0 100938
03:00+19с23592 0.0 101026
06:00+19св23590 0.0 101150
09:00+25с32440 0.0 1011500
12:00+28ссз22340 0.0 10112348
15:00+29сз22295 0.0 10112801
18:00+29ссз233446 0.0 1012711
21:00+24с35420 0.0 101376
25 июля, вс
вс2500:00+22св33440 0.0 101426
03:00+21св34450 0.0 101551
06:00+20всв47540 0.0 1016119
09:00+27всв56380 0.0 1016524
12:00+30всв55272 0.0 10172455
15:00+32всв33251 0.0 10162726
18:00+29ссв573549 0.0 1016403
21:00+26св4938100 0.1 1017202
26 июля, пн
пн2600:00+25всв5123849 0.0 1018275
03:00+23св495090 0.1 1018181
06:00+23св3853100 0.3 1018184
09:00+25в474445 0.3 1018349
12:00+32вюв562726 0.0 10182547
15:00+32в462789 0.0 10171947
18:00+30св483698 0.0 1017244
21:00+26всв494075 0.0 1017184
27 июля, вт
вт2700:00+26в41236100 0.0 1017308
03:00+26в51132100 0.0 1017319
06:00+23всв474191 0.0 1018120
09:00+25в483999 0.0 1018352
12:00+30вюв4526100 0.0 10191083
15:00+30св4527100 0.0 10181929
18:00+28всв2334100 0.0 1018404
21:00+23юз354510 0.0 101994
28 июля, ср
ср2800:00+21зюз344927 0.0 101979
03:00+19юз34555 0.0 101955
06:00+19юз356119 0.0 1019141
09:00+25зюз44455 0.0 1019667
12:00+29зсз11353 0.0 10181410
15:00+31ссв12310 0.0 10162513
18:00+30всв132911 0.0 10162776
21:00+25св223913 0.0 101620